Location: ??????????
(44.2167°N, 135.5333°E)
Time: 14:35:50
(UTC+00:00)

Cosmos 1892 Rocket - Pass Details

Date: 15 June 2025
Orbit: 599 x 627 km, 82.5° (Epoch: 16 July)

Event Time Altitude Azimuth Distance (km) Brightness Sun altitude
Rises 18:33:14 0° 174° (S) 2,897 6.7 -6.5°
Reaches altitude 10° 18:35:30 10° 169° (S) 1,993 5.9 -6.2°
Maximum altitude 18:39:47 51° 94° (E) 788 4.5 -5.6°
Drops below altitude 10° 18:44:04 10° 19° (NNE) 1,995 7.2 -5.0°
Sets 18:46:20 0° 14° (NNE) 2,902 8.0 -4.7°
